Flag for Germany Weather past 2 weeks in Osnabrück, Lower Saxony, Germany

55 °F

Passing clouds.

Feels Like: 52 °F
Forecast: 35 / 49 °F
Wind: 12 mph from Northeast

Location: Muenster / Osnabrueck

Current Time: Oct 10, 2015 at 3:18:32 PM

Latest Report: Oct 10, 2015 at 2:50 PM

Visibility: N/A

Pressure: 30.12 "Hg

Humidity: 59%

Dew point: 41 °F

Location of OsnabrückLocation

Historic Weather in Osnabrück — Graph


Osnabrück temperature yesterday

Maximum temperature yesterday: 59 °F (at 3:20 PM)
Minimum temperature yesterday: 54 °F (at 12:20 AM)
Average temperature yesterday: 55 °F

Past Weeks' High & Low Weather Summary

High66 °F (Oct 3, 4:50 PM)100% (Sep 26, 1:50 AM)30.66 "Hg (Sep 26, 1:50 AM)
Low34 °F (Oct 2, 7:20 AM)39% (Oct 2, 2:20 PM)29.59 "Hg (Oct 6, 7:20 AM)
Average54 °F84%30.21 "Hg
* Reported Sep 25 2:20 PM — Oct 10 2:20 PM, Osnabrück, Weather by CustomWeather, © 2015

Note: Actual official high and low records may vary slightly from our data, if they occured in-between our weather recording intervals... More about our weather records


Osnabrück weather history for previous 24 hours

Time TempWeatherWind HumidityBarometerVisibility
2:20 PM
Sat, Oct 10
55 °FPassing clouds.8 mph59%30.15 "HgN/A
1:50 PM55 °FPassing clouds.7 mph63%30.15 "HgN/A
1:20 PM54 °FSunny.9 mph63%30.15 "Hg10 mi
12:50 PM54 °FPassing clouds.8 mph63%30.15 "HgN/A
12:20 PM54 °FPassing clouds.8 mph67%30.15 "HgN/A
11:50 AM52 °FPassing clouds.8 mph67%30.18 "HgN/A
11:20 AM52 °FPassing clouds.8 mph72%30.18 "Hg5 mi
10:50 AM50 °FScattered clouds.8 mph82%30.18 "Hg4 mi
10:20 AM48 °FPartly sunny.7 mph94%30.18 "Hg4 mi
9:50 AM46 °FPartly sunny.9 mph93%30.18 "Hg4 mi
9:20 AM48 °FPartly sunny.8 mph87%30.18 "Hg4 mi
8:50 AM48 °FBroken clouds.6 mph87%30.18 "Hg4 mi
8:20 AM48 °FPassing clouds.6 mph87%30.18 "Hg4 mi
7:50 AM48 °FPassing clouds.7 mph87%30.18 "Hg4 mi
7:20 AM48 °FPassing clouds.8 mph94%30.18 "Hg4 mi
6:50 AM50 °FPassing clouds.5 mph88%30.18 "Hg4 mi
6:20 AM50 °FPassing clouds.3 mph88%30.18 "Hg4 mi
5:50 AM50 °FPassing clouds.5 mph88%30.18 "Hg4 mi
5:20 AM50 °FFog.7 mph88%30.18 "Hg3 mi
4:50 AM50 °FFog.5 mph94%30.18 "Hg3 mi
4:20 AM52 °FFog.8 mph88%30.18 "Hg3 mi
3:50 AM52 °FFog.2 mph94%30.18 "Hg3 mi
3:20 AM52 °FFog.3 mph94%30.18 "Hg3 mi
2:50 AM52 °FFog.5 mph94%30.18 "Hg3 mi
2:20 AM52 °FPassing clouds.6 mph94%30.18 "Hg4 mi
1:50 AM52 °FPassing clouds.7 mph94%30.18 "HgN/A
1:20 AM54 °FPassing clouds.8 mph88%30.18 "HgN/A
12:50 AM54 °FPassing clouds.6 mph94%30.18 "HgN/A
12:20 AM54 °FPartly cloudy.7 mph94%30.18 "HgN/A
11:20 PM
Fri, Oct 9
55 °FPartly cloudy.3 mph88%30.18 "HgN/A
10:50 PM55 °FPassing clouds.5 mph94%30.18 "HgN/A
10:20 PM55 °FPassing clouds.3 mph94%30.18 "HgN/A
9:50 PM55 °FPassing clouds.3 mph94%30.18 "HgN/A
9:20 PM55 °FLight rain. Passing clouds.2 mph94%30.18 "HgN/A
8:50 PM55 °FPartly cloudy.2 mph100%30.18 "HgN/A
8:20 PM55 °FSprinkles. Partly cloudy.2 mph94%30.18 "HgN/A
7:50 PM57 °FSprinkles. Passing clouds.7 mph88%30.18 "HgN/A
7:20 PM55 °FPartly sunny.5 mph94%30.15 "HgN/A
6:50 PM57 °FBroken clouds.6 mph88%30.15 "HgN/A
6:20 PM57 °FPartly sunny.6 mph88%30.15 "HgN/A
5:50 PM57 °FBroken clouds.7 mph88%30.15 "HgN/A
5:20 PM59 °FBroken clouds.8 mph82%30.15 "HgN/A
4:20 PM59 °FBroken clouds.7 mph88%30.15 "HgN/A
3:50 PM59 °FBroken clouds.8 mph82%30.15 "HgN/A
3:20 PM59 °FBroken clouds.6 mph88%30.15 "HgN/A
Weather by CustomWeather, © 2015

See weather overviewHow to use our weather pages